TimeCST,TemperatureF,Dew PointF,Humidity,Sea Level PressureIn,VisibilityMPH,Wind Direction,Wind SpeedMPH,Gust SpeedMPH,PrecipitationIn,Events,Conditions,WindDirDegrees,DateUTC
12:15 AM,14.7,6.3,69,30.14,10.0,NNW,17.3,20.7,N/A,,Clear,330,2014-01-15 06:15:00
12:35 AM,14.0,6.6,72,30.15,10.0,NNW,13.8,20.7,N/A,,Clear,340,2014-01-15 06:35:00
12:55 AM,13.6,6.6,74,30.15,10.0,NNW,11.5,19.6,N/A,,Clear,330,2014-01-15 06:55:00
1:15 AM,13.3,5.7,72,30.15,10.0,NNW,16.1,-,N/A,,Clear,340,2014-01-15 07:15:00
1:35 AM,12.9,5.7,73,30.15,10.0,NNW,13.8,20.7,N/A,,Clear,330,2014-01-15 07:35:00
1:55 AM,12.7,5.5,73,30.16,10.0,NNW,17.3,20.7,N/A,,Clear,340,2014-01-15 07:55:00
2:15 AM,12.4,4.8,72,30.16,10.0,NNW,19.6,24.2,N/A,,Clear,330,2014-01-15 08:15:00
2:35 AM,12.0,5.0,73,30.17,10.0,NNW,13.8,23.0,N/A,,Clear,330,2014-01-15 08:35:00
2:55 AM,11.7,4.8,74,30.17,10.0,NNW,15.0,-,N/A,,Clear,330,2014-01-15 08:55:00
3:15 AM,11.3,4.5,74,30.18,10.0,NNW,9.2,19.6,N/A,,Clear,330,2014-01-15 09:15:00
3:35 AM,10.9,4.1,74,30.18,10.0,NNW,8.1,-,N/A,,Clear,330,2014-01-15 09:35:00
3:55 AM,10.9,4.1,74,30.18,10.0,NW,9.2,16.1,N/A,,Clear,320,2014-01-15 09:55:00
4:15 AM,10.4,4.1,76,30.18,10.0,NNW,13.8,-,N/A,,Clear,330,2014-01-15 10:15:00
4:35 AM,10.4,4.1,76,30.18,10.0,NW,9.2,-,N/A,,Clear,320,2014-01-15 10:35:00
4:55 AM,10.4,4.1,76,30.19,10.0,NW,9.2,18.4,N/A,,Clear,320,2014-01-15 10:55:00
5:15 AM,10.2,4.1,76,30.18,10.0,NW,11.5,-,N/A,,Clear,320,2014-01-15 11:15:00
5:35 AM,10.2,3.7,75,30.19,10.0,NNW,11.5,-,N/A,,Clear,330,2014-01-15 11:35:00
5:55 AM,10.0,3.9,76,30.19,10.0,NNW,10.4,-,N/A,,Clear,340,2014-01-15 11:55:00
6:15 AM,10.0,3.9,76,30.19,10.0,NNW,6.9,-,N/A,,Scattered Clouds,340,2014-01-15 12:15:00
6:35 AM,10.4,4.1,76,30.19,10.0,NNW,8.1,-,N/A,,Mostly Cloudy,330,2014-01-15 12:35:00
6:55 AM,11.1,4.1,73,30.19,10.0,NNW,6.9,-,N/A,,Mostly Cloudy,340,2014-01-15 12:55:00
7:15 AM,10.9,3.9,73,30.19,10.0,North,9.2,-,N/A,,Mostly Cloudy,350,2014-01-15 13:15:00
7:35 AM,10.9,3.9,73,30.19,10.0,Calm,Calm,-,N/A,,Mostly Cloudy,0,2014-01-15 13:35:00
7:55 AM,11.3,4.1,73,30.19,10.0,Calm,Calm,-,N/A,,Overcast,0,2014-01-15 13:55:00
8:15 AM,11.5,5.0,75,30.19,10.0,Calm,Calm,-,N/A,Snow,Light Snow,0,2014-01-15 14:15:00
8:35 AM,12.2,5.5,75,30.20,10.0,NNW,6.9,-,N/A,Snow,Light Snow,330,2014-01-15 14:35:00
8:55 AM,12.7,5.9,74,30.21,10.0,NW,6.9,-,N/A,,Overcast,320,2014-01-15 14:55:00
9:15 AM,13.1,5.5,72,30.20,10.0,WNW,9.2,-,N/A,Snow,Light Snow,300,2014-01-15 15:15:00
9:35 AM,13.6,6.1,72,30.19,7.0,NW,6.9,-,N/A,Snow,Light Snow,310,2014-01-15 15:35:00
9:55 AM,13.6,5.4,70,30.19,7.0,Calm,Calm,-,N/A,Snow,Light Snow,0,2014-01-15 15:55:00
10:15 AM,14.4,5.9,69,30.19,10.0,NW,5.8,-,N/A,Snow,Light Snow,320,2014-01-15 16:15:00
10:35 AM,14.9,6.4,69,30.20,10.0,West,5.8,-,N/A,Snow,Light Snow,280,2014-01-15 16:35:00
10:55 AM,15.8,6.8,68,30.19,10.0,WSW,6.9,-,N/A,Snow,Light Snow,250,2014-01-15 16:55:00
11:15 AM,16.5,7.3,67,30.18,10.0,Calm,Calm,-,N/A,Snow,Light Snow,0,2014-01-15 17:15:00
11:35 AM,17.6,8.2,67,30.16,10.0,WNW,6.9,-,N/A,Snow,Light Snow,300,2014-01-15 17:35:00
11:55 AM,18.7,8.6,65,30.16,10.0,Calm,Calm,-,N/A,Snow,Light Snow,0,2014-01-15 17:55:00
12:15 PM,19.2,8.2,62,30.13,10.0,WSW,3.5,-,N/A,,Scattered Clouds,250,2014-01-15 18:15:00
12:35 PM,19.0,8.2,63,30.12,10.0,West,4.6,-,N/A,,Scattered Clouds,270,2014-01-15 18:35:00
12:55 PM,21.2,9.0,59,30.11,10.0,West,5.8,-,N/A,,Scattered Clouds,260,2014-01-15 18:55:00
1:15 PM,21.6,9.1,59,30.09,10.0,WSW,3.5,-,N/A,,Clear,250,2014-01-15 19:15:00
1:35 PM,23.2,9.3,55,30.07,10.0,SW,9.2,-,N/A,,Clear,220,2014-01-15 19:35:00
1:55 PM,24.3,9.1,53,30.05,10.0,SW,4.6,-,N/A,,Clear,230,2014-01-15 19:55:00
2:15 PM,24.8,9.0,51,30.04,10.0,Calm,Calm,-,N/A,,Clear,0,2014-01-15 20:15:00
2:35 PM,25.2,8.8,50,30.02,10.0,Calm,Calm,-,N/A,,Clear,0,2014-01-15 20:35:00
2:55 PM,25.9,9.7,50,30.02,10.0,Calm,Calm,-,N/A,,Clear,0,2014-01-15 20:55:00
3:15 PM,26.2,9.5,49,30.00,10.0,SW,9.2,-,N/A,,Clear,220,2014-01-15 21:15:00
3:35 PM,25.5,9.1,50,30.00,10.0,SSW,5.8,-,N/A,,Clear,200,2014-01-15 21:35:00
3:55 PM,25.7,9.7,51,30.00,10.0,SSW,9.2,-,N/A,,Clear,200,2014-01-15 21:55:00
4:15 PM,25.7,9.1,50,29.99,10.0,SW,9.2,-,N/A,,Clear,220,2014-01-15 22:15:00
4:35 PM,25.2,9.1,51,29.98,10.0,SSW,11.5,-,N/A,,Clear,210,2014-01-15 22:35:00
4:55 PM,24.8,8.2,49,29.97,10.0,SSW,10.4,16.1,N/A,,Clear,210,2014-01-15 22:55:00
5:15 PM,24.8,8.6,50,29.96,10.0,SW,8.1,-,N/A,,Clear,220,2014-01-15 23:15:00
5:35 PM,24.8,8.8,51,29.95,10.0,SSW,5.8,-,N/A,,Clear,200,2014-01-15 23:35:00
5:55 PM,24.8,9.5,52,29.93,10.0,South,8.1,-,N/A,,Clear,190,2014-01-15 23:55:00
6:15 PM,25.0,9.3,52,29.93,10.0,South,5.8,-,N/A,,Clear,190,2014-01-16 00:15:00
6:35 PM,24.8,9.5,52,29.92,10.0,SSW,5.8,-,N/A,,Clear,200,2014-01-16 00:35:00
6:55 PM,24.8,10.0,54,29.90,10.0,South,4.6,-,N/A,,Clear,190,2014-01-16 00:55:00
7:15 PM,24.8,9.5,52,29.89,10.0,South,5.8,-,N/A,,Clear,190,2014-01-16 01:15:00
7:35 PM,25.2,9.5,52,29.85,10.0,South,11.5,16.1,N/A,,Clear,190,2014-01-16 01:35:00
7:55 PM,25.3,9.1,50,29.85,10.0,SSW,12.7,19.6,N/A,,Clear,200,2014-01-16 01:55:00
8:15 PM,25.5,9.1,50,29.84,10.0,SSW,10.4,17.3,N/A,,Scattered Clouds,200,2014-01-16 02:15:00
8:35 PM,25.7,9.1,50,29.83,10.0,SSW,12.7,18.4,N/A,,Scattered Clouds,200,2014-01-16 02:35:00
8:55 PM,26.1,9.5,50,29.82,10.0,SSW,12.7,-,N/A,,Scattered Clouds,200,2014-01-16 02:55:00
9:15 PM,26.6,9.5,49,29.83,10.0,SW,11.5,18.4,N/A,,Mostly Cloudy,220,2014-01-16 03:15:00
9:35 PM,27.0,9.7,48,29.79,10.0,SSW,16.1,21.9,N/A,,Mostly Cloudy,210,2014-01-16 03:35:00
9:55 PM,26.4,12.0,55,29.76,10.0,SSW,18.4,24.2,N/A,,Mostly Cloudy,200,2014-01-16 03:55:00
10:15 PM,26.8,12.9,56,29.77,10.0,SSW,12.7,18.4,N/A,,Scattered Clouds,210,2014-01-16 04:15:00
10:35 PM,27.5,14.7,59,29.76,10.0,SSW,13.8,19.6,N/A,,Mostly Cloudy,210,2014-01-16 04:35:00
10:55 PM,26.6,15.8,64,29.75,10.0,SW,12.7,17.3,N/A,,Scattered Clouds,220,2014-01-16 04:55:00
11:15 PM,27.1,15.8,62,29.74,10.0,SSW,11.5,16.1,N/A,,Clear,210,2014-01-16 05:15:00
11:35 PM,27.5,15.8,61,29.73,10.0,SW,11.5,16.1,N/A,,Clear,230,2014-01-16 05:35:00
11:55 PM,28.2,16.0,60,29.71,10.0,SW,11.5,-,N/A,,Clear,220,2014-01-16 05:55:00